Port Clinton Carl R Keller Fi, OH

8:25 AM EDT on June 29, 2017 (GMT -0400)
Keller

Weather History for KPCW - October, 2013

Change the Weather History Date:

Monday, October 28, 2013

  Actual Average (KTTF) Record (KTTF)
Temperature  
Mean Temperature 44 °F -  
Max Temperature 53 °F 57 °F 78 °F (1984)
Min Temperature 36 °F 38 °F 22 °F (1976)
Degree Days  
Heating Degree Days 20    
Moisture  
Dew Point 38 °F    
Average Humidity 76    
Maximum Humidity 87    
Minimum Humidity 62    
Precipitation  
Precipitation 0.00 in - - ()
Sea Level Pressure  
Sea Level Pressure 30.22 in    
Wind  
Wind Speed 5 mph ()    
Max Wind Speed 12 mph    
Max Gust Speed -    
Visibility 9.8 miles    
Events      
Averages and records for this station are not official NWS values.
T = Trace of Precipitation, MM = Missing Value Source: Averaged Metar Reports

Daily Weather History Graph

Daily Weather History Graph

Search for Another Location

Airport or City:

Trip Planner

Search our weather history database for the weather conditions in past years. The results will help you decide how hot, cold, wet, or windy it might be!

Date:

Astronomy

Oct. 28, 2013 Rise Set
Actual Time 7:58 AM EDT 6:31 PM EDT
Civil Twilight 7:30 AM EDT 6:59 PM EDT
Nautical Twilight 6:57 AM EDT 7:32 PM EDT
Astronomical Twilight 6:25 AM EDT 8:04 PM EDT
Moon 1:46 AM EDT (10/28) 3:16 PM EDT (10/28)
Length of Visible Light 11h 29m
Length of Day
10h 32m
Waning Crescent, 34% of the Moon is Illuminated
Oct 28
Waning Crescent
Nov 3
New
Nov 10
First Quarter
Nov 17
Full
Nov 25
Last Quarter

Hourly Weather History & Observations

Time (EDT) Temp. Windchill Dew Point Humidity Pressure Visibility Wind Dir Wind Speed Gust Speed Precip Events Conditions
12:14 AM 42.8 °F 39.3 °F 33.8 °F 70% 30.05 in 10.0 mi SW 5.8 mph - N/A   Clear
12:33 AM 42.8 °F 38.6 °F 33.8 °F 70% 30.05 in 10.0 mi SW 6.9 mph - N/A   Clear
12:53 AM 41.9 °F 39.0 °F 34.0 °F 73% 30.06 in 10.0 mi SW 4.6 mph - N/A   Clear
1:14 AM 41.0 °F 38.0 °F 33.8 °F 76% 30.06 in 10.0 mi SW 4.6 mph - N/A   Clear
1:33 AM 41.0 °F 38.0 °F 35.6 °F 81% 30.07 in 10.0 mi SW 4.6 mph - N/A   Clear
1:53 AM 41.0 °F 37.1 °F 34.9 °F 79% 30.07 in 10.0 mi WSW 5.8 mph - N/A   Clear
2:14 AM 41.0 °F 38.0 °F 33.8 °F 76% 30.08 in 10.0 mi WSW 4.6 mph - N/A   Clear
2:33 AM 39.2 °F 35.9 °F 33.8 °F 81% 30.09 in 10.0 mi WSW 4.6 mph - N/A   Clear
2:53 AM 38.8 °F 36.5 °F 32.9 °F 79% 30.10 in 10.0 mi WSW 3.5 mph - N/A   Clear
3:14 AM 39.2 °F 35.0 °F 33.8 °F 81% 30.10 in 10.0 mi SW 5.8 mph - N/A   Clear
3:33 AM 39.2 °F 35.0 °F 33.8 °F 81% 30.10 in 10.0 mi WSW 5.8 mph - N/A   Clear
3:53 AM 39.9 °F 35.8 °F 34.0 °F 79% 30.11 in 10.0 mi SW 5.8 mph - N/A   Clear
4:14 AM 39.2 °F 35.9 °F 33.8 °F 81% 30.11 in 10.0 mi SW 4.6 mph - N/A   Clear
4:33 AM 39.2 °F 35.9 °F 33.8 °F 81% 30.11 in 10.0 mi WSW 4.6 mph - N/A   Clear
4:53 AM 39.9 °F 37.8 °F 34.0 °F 79% 30.12 in 10.0 mi West 3.5 mph - N/A   Clear
5:13 AM 39.2 °F 35.9 °F 33.8 °F 81% 30.12 in 10.0 mi WSW 4.6 mph - N/A   Clear
5:33 AM 39.2 °F 35.9 °F 33.8 °F 81% 30.12 in 10.0 mi WSW 4.6 mph - N/A   Clear
5:53 AM 38.8 °F 36.5 °F 32.9 °F 79% 30.13 in 10.0 mi WSW 3.5 mph - N/A   Clear
6:13 AM 37.4 °F - 32.0 °F 81% 30.13 in 10.0 mi Calm Calm - N/A   Clear
6:33 AM 37.4 °F - 32.0 °F 81% 30.14 in 10.0 mi Calm Calm - N/A   Clear
6:53 AM 37.9 °F - 32.9 °F 82% 30.15 in 10.0 mi Calm Calm - N/A   Clear
7:13 AM 37.4 °F 34.9 °F 33.8 °F 87% 30.15 in 10.0 mi SW 3.5 mph - N/A   Clear
7:32 AM 37.4 °F - 32.0 °F 81% 30.15 in 3.0 mi Calm Calm - N/A   Haze
7:53 AM 36.9 °F - 32.0 °F 83% 30.16 in 10.0 mi Calm Calm - N/A   Clear
8:13 AM 37.4 °F - 32.0 °F 81% 30.17 in 10.0 mi Calm Calm - N/A   Clear
8:34 AM 39.2 °F 35.9 °F 33.8 °F 81% 30.18 in 10.0 mi WSW 4.6 mph - N/A   Clear
8:53 AM 41.0 °F 39.0 °F 34.9 °F 79% 30.20 in 10.0 mi West 3.5 mph - N/A   Clear
9:13 AM 42.8 °F 40.1 °F 35.6 °F 76% 30.21 in 10.0 mi West 4.6 mph - N/A   Clear
9:33 AM 44.6 °F 41.4 °F 35.6 °F 71% 30.22 in 10.0 mi West 5.8 mph - N/A   Clear
9:53 AM 46.9 °F - 36.9 °F 68% 30.22 in 10.0 mi WNW 4.6 mph - N/A   Clear
10:13 AM 46.4 °F 43.5 °F 37.4 °F 71% 30.23 in 10.0 mi WNW 5.8 mph - N/A   Clear
10:33 AM 48.2 °F - 37.4 °F 66% 30.23 in 10.0 mi Variable 3.5 mph - N/A   Clear
10:53 AM 50.0 °F - 38.8 °F 66% 30.24 in 10.0 mi NNW 3.5 mph - N/A   Clear
11:13 AM 50.0 °F - 39.2 °F 66% 30.24 in 10.0 mi Calm Calm - N/A   Clear
11:33 AM 51.8 °F - 41.0 °F 67% 30.25 in 10.0 mi North 4.6 mph - N/A   Clear
11:53 AM 52.0 °F - 41.0 °F 66% 30.25 in 5.0 mi NNW 4.6 mph - N/A   Haze
12:13 PM 51.8 °F - 41.0 °F 67% 30.26 in 10.0 mi NNW 3.5 mph - N/A   Mostly Cloudy
12:33 PM 51.8 °F - 41.0 °F 67% 30.26 in 10.0 mi NNW 3.5 mph - N/A   Mostly Cloudy
12:53 PM 52.0 °F - 43.0 °F 71% 30.26 in 10.0 mi Calm Calm - N/A   Mostly Cloudy
1:13 PM 53.6 °F - 42.8 °F 67% 30.26 in 10.0 mi Variable 3.5 mph - N/A   Scattered Clouds
1:33 PM 51.8 °F - 41.0 °F 67% 30.26 in 10.0 mi Variable 4.6 mph - N/A   Partly Cloudy
1:53 PM 51.8 °F - 41.0 °F 67% 30.26 in 9.0 mi ENE 5.8 mph - N/A   Mostly Cloudy
2:13 PM 51.8 °F - 39.2 °F 62% 30.26 in 10.0 mi ENE 8.1 mph - N/A   Mostly Cloudy
2:33 PM 51.8 °F - 41.0 °F 67% 30.26 in 10.0 mi NE 6.9 mph - N/A   Partly Cloudy
2:53 PM 52.0 °F - 41.0 °F 66% 30.26 in 10.0 mi ENE 6.9 mph - N/A   Partly Cloudy
3:13 PM 51.8 °F - 42.8 °F 71% 30.26 in 10.0 mi ENE 8.1 mph - N/A   Partly Cloudy
3:33 PM 51.8 °F - 42.8 °F 71% 30.26 in 10.0 mi ENE 11.5 mph - N/A   Scattered Clouds
3:53 PM 52.0 °F - 43.0 °F 71% 30.27 in 10.0 mi NE 10.4 mph - N/A   Mostly Cloudy
4:13 PM 51.8 °F - 42.8 °F 71% 30.27 in 10.0 mi NE 6.9 mph - N/A   Partly Cloudy
4:33 PM 51.8 °F - 42.8 °F 71% 30.27 in 10.0 mi NE 8.1 mph - N/A   Mostly Cloudy
4:53 PM 50.9 °F - 41.0 °F 69% 30.27 in 10.0 mi ENE 8.1 mph - N/A   Scattered Clouds
5:13 PM 51.8 °F - 42.8 °F 71% 30.27 in 10.0 mi ENE 8.1 mph - N/A   Clear
5:34 PM 51.8 °F - 42.8 °F 71% 30.28 in 10.0 mi ENE 8.1 mph - N/A   Clear
5:53 PM 50.0 °F - 43.0 °F 77% 30.27 in 10.0 mi NE 9.2 mph - N/A   Partly Cloudy
6:13 PM 48.2 °F - 42.8 °F 82% 30.28 in 10.0 mi ENE 10.4 mph - N/A   Clear
6:33 PM 48.2 °F - 42.8 °F 82% 30.28 in 10.0 mi ENE 9.2 mph - N/A   Clear
6:53 PM 47.8 °F - 43.0 °F 83% 30.28 in 10.0 mi ENE 6.9 mph - N/A   Clear
7:13 PM 48.2 °F - 42.8 °F 82% 30.29 in 10.0 mi ENE 5.8 mph - N/A   Clear
7:33 PM 46.4 °F 43.5 °F 42.8 °F 87% 30.29 in 10.0 mi ENE 5.8 mph - N/A   Clear
7:53 PM 46.9 °F - 41.9 °F 83% 30.30 in 10.0 mi ENE 3.5 mph - N/A   Clear
8:13 PM 46.4 °F 45.2 °F 42.8 °F 87% 30.30 in 10.0 mi ENE 3.5 mph - N/A   Clear
8:33 PM 46.4 °F - 42.8 °F 87% 30.30 in 10.0 mi Calm Calm - N/A   Clear
8:53 PM 45.9 °F 41.7 °F 39.9 °F 80% 30.30 in 10.0 mi NE 8.1 mph - N/A   Clear
9:13 PM 44.6 °F 40.7 °F 39.2 °F 81% 30.31 in 10.0 mi NE 6.9 mph - N/A   Clear
9:33 PM 44.6 °F 40.2 °F 39.2 °F 81% 30.31 in 10.0 mi NE 8.1 mph - N/A   Clear
9:53 PM 45.0 °F 40.6 °F 38.8 °F 79% 30.32 in 10.0 mi NE 8.1 mph - N/A   Clear
10:13 PM 44.6 °F 40.2 °F 39.2 °F 81% 30.33 in 10.0 mi NE 8.1 mph - N/A   Clear
10:33 PM 44.6 °F 39.7 °F 39.2 °F 81% 30.33 in 10.0 mi NE 9.2 mph - N/A   Clear
10:54 PM 43.9 °F 39.3 °F 37.9 °F 80% 30.33 in 10.0 mi NE 8.1 mph - N/A   Clear
11:13 PM 44.6 °F 39.7 °F 37.4 °F 76% 30.33 in 10.0 mi NE 9.2 mph - N/A   Clear
11:33 PM 44.6 °F 40.7 °F 37.4 °F 76% 30.34 in 10.0 mi NE 6.9 mph - N/A   Clear
11:53 PM 43.9 °F 38.8 °F 36.9 °F 76% 30.34 in 10.0 mi NE 9.2 mph - N/A   Clear